Regional Weather Roundup
Issued by NWS

Home | Current Version | Previous Version | Text Only | Print | Product List | Glossary Off
Versions: 1 2 3 4 5 6 7 8 9 10 11 12 13 14 15 16 17 18 19 20 21 22 23 24 25 26 27 28 29 30 31 32 33 34 35 36 37 38 39 40 41 42 43 44 45 46 47 48 49 50

000
ASUS43 KLMK 162202
RWRKY
KENTUCKY REGIONAL WEATHER ROUNDUP
NATIONAL WEATHER SERVICE LOUISVILLE KY
600 PM EDT WED AUG 16 2017

NOTE "FAIR" INDICATES FEW OR NO CLOUDS BELOW 12,000 FEET
WITH NO SIGNIFICANT WEATHER AND/OR OBSTRUCTIONS TO VISIBILITY.

KYZ001>023-026-027-061>063-070>075-162300-
WESTERN AND SOUTH CENTRAL KENTUCKY

CITY           SKY/WX    TMP DP  RH WIND       PRES   REMARKS
PADUCAH        MOSUNNY   91  74  57 SW9G16    29.93R HX 100
HENDERSON      SUNNY     88  77  69 VRB5      29.93S HX 100
OWENSBORO      MOSUNNY   88  75  65 S9        29.95S HX  97
HOPKINSVILLE   NOT AVBL
BOWLING GREEN  PTSUNNY   82  76  81 E3        29.98F
GLASGOW        LGT RAIN  82  74  77 CALM      29.99S
$$

KYZ024-025-028>034-038-045-046-053-162300-
NORTH CENTRAL KENTUCKY

CITY           SKY/WX    TMP DP  RH WIND       PRES   REMARKS
LOUISVILLE/SDF PTSUNNY   91  70  49 S9        29.95S HX  96
LOUISVILLE/LOU PTSUNNY   91  72  53 S9        29.95F HX  98
FORT KNOX      NOT AVBL
$$

KYZ035>037-039>044-047>052-055>060-089>105-162300-
NORTHEAST KENTUCKY

CITY           SKY/WX    TMP DP  RH WIND       PRES   REMARKS
LEXINGTON      SUNNY     87  69  54 SW6       30.00S HX  91
COVINGTON      MOSUNNY   88  71  57 SW7       29.96F HX  94
FRANKFORT      MOSUNNY   87  69  54 SW10      29.97F HX  91
$$

KYZ054-064>069-076>088-106>120-162300-
SOUTHEAST KENTUCKY

CITY           SKY/WX    TMP DP  RH WIND       PRES   REMARKS
JACKSON        LGT RAIN  78  73  84 CALM      30.04S
LONDON         SUNNY     85  72  65 W8        30.02F HX  91
SOMERSET       NOT AVBL
MIDDLESBORO    CLOUDY    88  73  61 E6        30.03R HX  95
MONTICELLO     MOCLDY    87  77  72 W6        30.03S HX  99
$$





USA.gov is the U.S. government's official web portal to all federal, state and local government web resources and services.